[[{"header":{"parameterUnit":"m.s-1","parameterCategory":1,"la1":30.2991,"la2":30.254,"lo1":-89.0895,"lo2":-89.0444,"dy":0.0017,"dx":0.0017,"nx":28,"ny":28,"refTime":"2024-04-04T21:00:00:Z","depth":0,"parameterNumber":2,"parameterNumberName":"U-component_of_WINDS"},"data":[0,0,0,0,0,0,0,0,0,0,0,0,0,0,0,0,0,0,0,0,0,0,0,0,0,0,0,0,0,0,0,0,0,0,0,0,0,0,0,0,0,0,0,0,0,0,0,0,0,0,0,0,0,0,0,0,0,0,3.7249,3.7251,0,3.7368,3.737,3.7371,3.7318,3.7315,3.7312,3.7309,3.7432,3.7438,3.7444,0,0,0,0,0,0,0,0,0,0,0,0,0,3.6977,3.6982,3.7249,3.7251,3.7252,3.7368,3.737,3.7372,3.7319,3.7315,3.7311,3.7308,3.7431,3.7438,3.7445,0,0,0,0,0,0,0,0,0,0,0,0,0,3.7095,3.6984,3.7249,3.724,3.724,3.7368,3.737,3.7372,3.7319,3.7315,3.731,3.7306,3.7428,3.7437,3.7446,3.759,0,0,3.7473,3.7477,0,0,0,0,0,0,0,0,3.7089,3.7106,3.724,3.7241,3.7241,3.7324,3.7319,3.7445,3.732,3.7289,3.7309,3.7304,3.74,3.7411,3.7443,3.7596,3.7601,3.7474,3.748,3.7484,3.7486,0,0,0,0,0,0,0,3.7081,3.71,3.7296,3.7242,3.7243,3.723,3.7242,3.7343,3.7368,3.7292,3.7288,3.7303,3.74,3.7435,3.7446,3.7603,3.7474,3.7482,3.7488,3.7491,3.788,3.7884,0,0,0,0,0,0,3.7072,3.7094,3.7293,3.73,3.7153,3.7238,3.7252,3.7302,3.7367,3.7372,3.7307,3.73,3.7421,3.7435,3.745,3.7623,3.7484,3.7492,3.7497,3.7875,3.7881,3.7886,0,0,0,0,0,0,3.7067,3.7091,3.7288,3.7196,3.722,3.7248,3.7304,3.7307,3.7341,3.7378,3.7382,3.7338,3.7418,3.7437,3.7555,3.7626,3.7496,3.7504,3.7869,3.7877,3.7883,3.797,0,0,0,0,0,0,3.7059,3.7089,3.7144,3.7198,3.7225,3.7392,3.7309,3.7312,3.7357,3.735,3.7408,3.7414,3.7416,3.7542,3.7564,3.7636,3.7511,3.7863,3.7872,3.7881,3.7961,3.7979,3.7995,0,0,0,0,0,3.705,3.7164,3.7147,3.7171,3.7294,3.7396,3.7412,3.7412,3.7363,3.7418,3.7442,3.7412,3.7615,3.7555,3.7579,3.7655,3.7858,3.787,3.788,3.7953,3.7976,3.7995,0,0,0,0,0,0,3.7118,3.7171,3.7153,3.7287,3.7338,3.7387,3.7457,3.7436,3.7501,3.7491,3.7489,3.7503,3.7626,3.7652,3.7584,3.7798,3.7729,3.7746,3.7776,3.7798,3.7815,3.7806,3.7519,0,0,0,0,0,3.7149,3.7227,3.7268,3.7383,3.7409,3.7429,3.7473,3.7469,3.7521,3.7542,3.7574,3.7626,3.7701,3.7751,3.7822,3.7964,3.7976,3.8029,3.8046,3.8059,3.8074,3.8151,3.8174,3.7922,3.7922,3.7922,0,0,3.7213,3.7252,3.7301,3.7398,3.7436,3.7517,3.7447,3.7535,3.7595,3.7555,3.7669,3.7695,3.7752,3.7883,3.7942,3.7909,3.8146,3.8074,3.8084,3.8091,3.8164,3.8188,3.8209,3.793,3.7928,3.7927,0,0,3.7372,3.7409,3.7508,3.7548,3.7607,3.7619,3.7643,3.7695,3.7711,3.7825,3.7796,3.7868,3.7998,3.804,3.8078,3.8253,3.8228,3.8276,3.8366,3.8441,3.846,3.8478,3.854,3.8562,3.829,3.8291,3.8291,0,3.7445,3.7565,3.7562,3.7653,3.7697,3.7664,3.7765,3.7804,3.7883,3.7914,3.7875,3.8038,3.8074,3.8214,3.8257,3.8289,3.8317,3.8269,3.8458,3.8475,3.8492,3.8551,3.8574,3.8296,3.8295,3.8295,3.8294,0,3.7651,3.7735,3.7808,3.7885,3.7937,3.8033,3.8045,3.8098,3.8089,3.8106,3.8222,3.8265,3.8344,3.8377,3.837,3.8517,3.8494,3.8457,3.8388,3.8521,3.8577,3.8599,3.8304,3.8302,3.83,3.8299,0,0,3.7857,3.793,3.7958,3.7992,3.8054,3.8119,3.8213,3.829,3.8336,3.8391,3.847,3.8581,3.8547,3.8591,3.8588,3.8654,3.8789,3.8608,3.861,3.864,3.8953,3.898,3.9006,3.8773,3.8777,3.878,3.8948,0,3.802,3.8184,3.8184,3.8336,3.8413,3.8383,3.8465,3.8512,3.853,3.8598,3.8618,3.8696,3.8645,3.8671,3.8735,3.8759,3.8852,3.8747,3.8846,3.885,3.8832,3.9036,3.9065,3.9221,3.897,3.8973,3.8976,0,3.8232,3.8294,3.8453,3.8504,3.8536,3.861,3.868,3.8746,3.8799,3.8807,3.8856,3.8843,3.8939,3.8867,3.8999,3.8928,3.8969,3.8986,3.8992,3.9002,3.8921,3.905,3.9271,3.9294,3.901,3.9007,3.9005,0,3.8365,3.8489,3.86,3.863,3.8692,3.8744,3.8773,3.8821,3.8868,3.893,3.8959,3.9032,3.9072,3.9128,3.9136,3.9083,3.9269,3.9197,3.9278,3.9278,3.9318,3.9316,3.9549,3.9345,3.9345,3.9344,3.9344,0,3.8547,3.8646,3.8661,3.8729,3.8838,3.8838,3.8946,3.897,3.9014,3.9086,3.9065,3.9134,3.9139,3.9209,3.9216,3.9324,3.9342,3.9352,3.9352,3.9354,3.9353,3.938,3.9369,3.9351,3.9349,3.9348,3.9347,0,3.8715,3.8729,3.8848,3.8897,3.8911,3.899,3.9031,3.9097,3.9112,3.9204,3.9226,3.925,3.9333,3.9345,3.9442,3.9446,3.9576,3.9565,3.9558,3.9556,3.9636,3.9628,3.9895,3.993,3.9704,3.9706,3.9708,0,3.883,3.8905,3.8962,3.9009,3.9039,3.9115,3.9162,3.9165,3.9214,3.928,3.9338,3.9417,3.9481,3.9614,3.9641,3.9714,3.9705,3.9793,3.9716,3.9715,3.9706,3.9701,3.9709,3.9808,3.9811,3.9813,3.9814,0,3.9033,3.9036,3.9104,3.9175,3.9232,3.9288,3.9341,3.938,3.939,3.9447,3.953,3.958,3.9678,3.9757,3.983,3.9859,3.9839,3.9838,3.9861,3.9863,3.9856,3.986,3.9598,3.9832,3.983,3.9829,3.9828,3.9827,3.9178,3.9243,3.9293,3.937,3.941,3.9459,3.9523,3.9546,3.9615,3.9695,3.9692,3.9784,3.9835,3.993,3.9965,4.0036,4.0008,4.0041,4.0049,4.0057,4.0065,3.9844,4.005,4.0049,4.0049,4.0048,4.0048,0,3.938,3.941,3.9481,3.9555,3.9615,3.959,3.9647,3.9699,3.978,3.9829,3.9892,3.9987,4.0064,4.0097,4.0172,4.0223,4.0216,4.0243,4.0239,4.0246,4.0086,4.0059,4.0248,4.0248,4.0248,4.0248,4.0248,4.0248,3.9492,3.9601,3.9609,3.9738,3.9767,3.9856,3.9891,3.9937,3.9975,4.0083,4.0146,4.0167,4.0209,4.0288,4.0357,4.0365,4.0393,4.0425,4.0428,4.0278,4.0258,4.0238,4.0213,4.0431,4.0432,4.0583,4.0584,4.0585]},{"header":{"parameterUnit":"m.s-1","parameterCategory":1,"la1":30.2991,"la2":30.254,"lo1":-89.0895,"lo2":-89.0444,"dy":0.0017,"dx":0.0017,"nx":28,"ny":28,"refTime":"2024-04-04T21:00:00:Z","depth":0,"parameterNumber":3,"parameterNumberName":"V-component_of_WINDS"},"data":[0,0,0,0,0,0,0,0,0,0,0,0,0,0,0,0,0,0,0,0,0,0,0,0,0,0,0,0,0,0,0,0,0,0,0,0,0,0,0,0,0,0,0,0,0,0,0,0,0,0,0,0,0,0,0,0,0,0,0.436,0.4359,0,0.4266,0.4265,0.4264,0.4179,0.4178,0.4177,0.4176,0.4079,0.4077,0.4076,0,0,0,0,0,0,0,0,0,0,0,0,0,0.4464,0.4463,0.436,0.4359,0.4357,0.4266,0.4265,0.4263,0.4179,0.4178,0.4176,0.4175,0.4079,0.4077,0.4075,0,0,0,0,0,0,0,0,0,0,0,0,0,0.44,0.4462,0.436,0.4304,0.4298,0.4266,0.4265,0.4263,0.4179,0.4178,0.4176,0.4175,0.408,0.4078,0.4075,0.409,0,0,0.4068,0.4067,0,0,0,0,0,0,0,0,0.4403,0.4396,0.4314,0.4308,0.4301,0.4232,0.4266,0.4205,0.418,0.4224,0.4176,0.4174,0.4131,0.4124,0.411,0.4086,0.4082,0.4068,0.4066,0.4065,0.4064,0,0,0,0,0,0,0,0.4408,0.4399,0.4322,0.4313,0.4305,0.4283,0.4272,0.4254,0.4187,0.422,0.4214,0.4204,0.4127,0.4113,0.4107,0.408,0.4068,0.4065,0.4064,0.4063,0.4062,0.4063,0,0,0,0,0,0,0.4421,0.4404,0.4325,0.432,0.435,0.4283,0.4271,0.4256,0.4187,0.4175,0.4205,0.42,0.4118,0.411,0.4103,0.4116,0.4065,0.4063,0.4061,0.4061,0.4062,0.4064,0,0,0,0,0,0,0.4424,0.4415,0.4329,0.436,0.4347,0.4283,0.4267,0.4255,0.424,0.4176,0.4164,0.4203,0.4116,0.4107,0.4094,0.4111,0.4062,0.4059,0.4059,0.4061,0.4063,0.4142,0,0,0,0,0,0,0.4427,0.4416,0.4422,0.4361,0.4346,0.4322,0.4268,0.4254,0.4236,0.4229,0.417,0.4159,0.4114,0.4098,0.4092,0.4107,0.4057,0.4057,0.406,0.4062,0.4137,0.4146,0.4154,0,0,0,0,0,0.4431,0.4448,0.4423,0.4414,0.4352,0.4324,0.4315,0.4263,0.4238,0.4243,0.4201,0.4161,0.411,0.4098,0.4089,0.4105,0.4056,0.4059,0.4062,0.4134,0.4145,0.4154,0,0,0,0,0,0,0.4514,0.4439,0.441,0.4408,0.4373,0.4309,0.4314,0.4277,0.4248,0.4242,0.4179,0.4166,0.416,0.4131,0.4118,0.4115,0.4077,0.4079,0.4135,0.4144,0.4153,0.416,0.4055,0,0,0,0,0,0.4532,0.4515,0.4451,0.4455,0.4439,0.438,0.4365,0.4328,0.4289,0.4274,0.4231,0.4195,0.417,0.4155,0.4129,0.4132,0.4118,0.4138,0.4147,0.4154,0.4157,0.4155,0.4163,0.4075,0.4075,0.4075,0,0,0.4568,0.4526,0.4519,0.447,0.4439,0.4423,0.4368,0.4353,0.434,0.4271,0.4257,0.4224,0.4179,0.4174,0.4169,0.4149,0.4178,0.4158,0.4165,0.4163,0.4159,0.4168,0.4175,0.4077,0.4076,0.4076,0,0,0.4627,0.4594,0.4593,0.4562,0.4515,0.4475,0.4475,0.4417,0.4392,0.4377,0.4324,0.4307,0.4267,0.4237,0.4216,0.4262,0.4223,0.4255,0.4299,0.4298,0.4305,0.4311,0.4327,0.4333,0.4257,0.4258,0.4258,0,0.4679,0.4654,0.4597,0.4586,0.4566,0.4502,0.45,0.4473,0.442,0.4407,0.4385,0.4332,0.4297,0.4283,0.4294,0.4279,0.4277,0.4262,0.4309,0.4314,0.4318,0.4333,0.4339,0.4262,0.4261,0.4261,0.426,0,0.4719,0.4702,0.4707,0.4657,0.4637,0.4631,0.4573,0.4559,0.4524,0.4486,0.447,0.4425,0.4389,0.4383,0.4348,0.4364,0.4353,0.4321,0.4282,0.4332,0.4345,0.435,0.4268,0.4266,0.4265,0.4264,0,0,0.4829,0.4747,0.475,0.4726,0.4668,0.4654,0.4644,0.4608,0.4597,0.4562,0.4552,0.4518,0.4488,0.4464,0.4425,0.4424,0.4462,0.4391,0.4389,0.4406,0.4476,0.4502,0.4509,0.4436,0.4437,0.4438,0.448,0,0.4879,0.4858,0.4807,0.4801,0.4784,0.4723,0.4714,0.4677,0.4641,0.4621,0.4581,0.4558,0.4519,0.4505,0.4501,0.4459,0.4476,0.4455,0.4426,0.4425,0.444,0.4516,0.4542,0.4585,0.4485,0.4486,0.4486,0,0.4934,0.4903,0.4896,0.4838,0.4829,0.4822,0.4785,0.4766,0.4723,0.4696,0.467,0.4626,0.4611,0.4575,0.4553,0.454,0.4525,0.4502,0.4502,0.4498,0.446,0.4514,0.4597,0.4604,0.4493,0.4493,0.4492,0,0.5015,0.4971,0.4961,0.4942,0.4875,0.4871,0.4843,0.4797,0.4779,0.4746,0.4733,0.4698,0.468,0.4654,0.4601,0.458,0.4585,0.4545,0.4563,0.4564,0.4567,0.4568,0.465,0.4557,0.4557,0.4557,0.4557,0,0.5076,0.5075,0.4996,0.499,0.4986,0.4926,0.4924,0.4889,0.4849,0.4835,0.4779,0.4766,0.4698,0.4677,0.4636,0.4624,0.4616,0.4594,0.4583,0.4599,0.4602,0.4589,0.4585,0.4559,0.4558,0.4558,0.4558,0,0.5166,0.5114,0.5099,0.5036,0.502,0.5019,0.4965,0.4956,0.4916,0.4898,0.4891,0.4828,0.4801,0.4746,0.4703,0.4675,0.4673,0.4653,0.4688,0.4681,0.4702,0.4701,0.4779,0.4786,0.4689,0.469,0.4691,0,0.5209,0.5206,0.5143,0.5129,0.5103,0.5082,0.5062,0.5003,0.4985,0.4934,0.4931,0.4899,0.4871,0.4829,0.478,0.4747,0.4726,0.4755,0.4721,0.4737,0.4726,0.4728,0.4727,0.4764,0.4765,0.4766,0.4767,0,0.5291,0.5265,0.5239,0.5204,0.5183,0.5152,0.5119,0.5111,0.5043,0.5025,0.4997,0.4975,0.493,0.4899,0.4858,0.4828,0.4786,0.4778,0.4781,0.4797,0.4818,0.4807,0.471,0.4777,0.4776,0.4775,0.4775,0.4774,0.5358,0.5353,0.5307,0.528,0.5248,0.5218,0.5207,0.5165,0.514,0.51,0.5066,0.504,0.4995,0.4936,0.4908,0.4886,0.4866,0.4869,0.487,0.4872,0.4879,0.4821,0.4878,0.4878,0.4877,0.4877,0.4877,0,0.5437,0.5404,0.538,0.5335,0.5313,0.5276,0.5236,0.5221,0.5199,0.516,0.5133,0.51,0.5069,0.5016,0.4981,0.4973,0.4953,0.4966,0.4966,0.496,0.4899,0.49,0.4983,0.4983,0.4983,0.4983,0.4983,0.4983,0.5476,0.5464,0.5432,0.5404,0.537,0.5345,0.5326,0.5297,0.5266,0.5231,0.5205,0.5171,0.5126,0.5087,0.5057,0.5042,0.5031,0.505,0.503,0.4974,0.4964,0.4955,0.4956,0.5048,0.5049,0.5092,0.5092,0.5093]}]]